{"data":{"norad_id":59587,"intl_designator":"2024-077A","name":"NEONSAT-1","alt_names":[],"object_type":"PAYLOAD","status":"ACTIVE","operator":null,"country":"SKOR","launch_date":"2024-04-23","launch_site_code":"RLLB","launch_vehicle":null,"mission":null,"orbit_class":"UNKNOWN","rcs_meters":null,"size_class":null,"mass_kg":null,"dimensions":null,"purposes":[],"wikipedia_slug":null,"has_3d_model":false,"image_url":null,"decayed_at":null,"tle_current":{"epoch":"2026-09-22T22:56:59.872992Z","epoch_age_seconds":58054,"freshness":"FRESH","line1":"1 59587U 24077A   26265.95624853  .00010117  00000+0  24985-3 0  9997","line2":"2 59587  97.3445 350.3119 0008577  48.0098 312.1877 15.40663794134772","mean_motion":15.40663794,"eccentricity":0.0008577,"inclination_deg":97.3445,"raan_deg":350.3119,"arg_perigee_deg":48.0098,"mean_anomaly_deg":312.1877,"bstar":0.00024985,"rev_number":13477,"period_min":93.466206294194,"perigee_km":438.29755439354,"apogee_km":450.0005038479,"semimajor_km":6822.2860291207,"source":"CELESTRAK","updated_at":"2026-09-23T09:00:19.472241Z"}}}